EW5447 Weather Reports


Display with metric or nautical units.
time (UTC)temp
F
wind
direction
speed
MPH
gust
MPH
rain 1hr
in
rain 24hr
in
rain mn
in
humidity
%
barometer
mb
20260507184505 73 240 1.0 4.0 0.00 0.00 0.00 48 1018.1
20260507183059 71 202 1.0 4.0 0.00 0.00 0.00 50 1018.3
20260507181554 71 259 0.0 3.0 0.00 0.00 0.00 51 1018.4
20260507180051 69 242 2.0 4.0 0.00 0.00 0.00 54 1018.5
20260507174550 67 244 1.0 5.0 0.00 0.00 0.00 56 1018.7
20260507173044 69 225 1.0 3.0 0.00 0.00 0.00 55 1018.7
20260507171541 67 126 1.0 3.0 0.00 0.00 0.00 59 1018.9
20260507170037 64 251 2.0 4.0 0.00 0.00 0.00 63 1019.0
20260507164534 64 273 1.0 4.0 0.00 0.00 0.00 61 1019.1
20260507163030 63 244 1.0 3.0 0.00 0.00 0.00 67 1019.2
20260507161527 62 138 0.0 2.0 0.00 0.00 0.00 68 1019.4
20260507160027 60 107 1.0 2.0 0.00 0.00 0.00 70 1019.5
20260507154520 59 30 0.0 2.0 0.00 0.00 0.00 72 1019.6
20260507153016 56 257 0.0 0.0 0.00 0.00 0.00 76 1019.7
20260507151513 56 315 0.0 0.0 0.00 0.00 0.00 77 1019.8
20260507150012 54 360 0.0 0.0 0.00 0.00 0.00 84 1019.9
20260507144505 51 45 0.0 0.0 0.00 0.00 0.00 87 1020.0
20260507143003 50 53 0.0 0.0 0.00 0.00 0.00 90 1019.9
20260507141600 48 53 0.0 0.0 0.00 0.00 0.00 92 1019.8
20260507140108 46 53 0.0 0.0 0.00 0.00 0.00 94 1019.7
20260507134552 43 53 0.0 0.0 0.00 0.00 0.00 94 1019.6
20260507133048 41 53 0.0 0.0 0.00 0.00 0.00 92 1019.4
20260507131548 42 53 0.0 0.0 0.00 0.00 0.00 94 1019.3
20260507130043 40 89 0.0 2.0 0.00 0.00 0.00 91 1019.3
20260507124541 42 120 0.0 1.0 0.00 0.00 0.00 94 1019.2
20260507123040 41 348 0.0 2.0 0.00 0.00 0.00 92 1019.1
20260507121538 41 355 0.0 2.0 0.00 0.00 0.00 91 1019.2
20260507120036 42 335 1.0 2.0 0.00 0.00 0.00 91 1019.3
20260507114536 44 346 0.0 0.0 0.00 0.00 0.00 89 1019.3
20260507113039 44 313 0.0 0.0 0.00 0.00 0.00 92 1019.4
20260507111536 43 300 0.0 0.0 0.00 0.00 0.00 91 1019.3
20260507110032 42 300 0.0 2.0 0.00 0.00 0.00 92 1019.4
20260507104533 43 328 0.0 2.0 0.00 0.00 0.00 92 1019.3
20260507103026 43 312 0.0 2.0 0.00 0.00 0.00 91 1019.3
20260507101536 44 33 0.0 2.0 0.00 0.00 0.00 90 1019.4
20260507100030 44 5 0.0 1.0 0.00 0.00 0.00 89 1019.4
20260507094521 45 55 0.0 0.0 0.00 0.00 0.00 91 1019.4
20260507093025 45 327 0.0 0.0 0.00 0.00 0.00 89 1019.4
20260507091617 45 304 0.0 0.0 0.00 0.00 0.00 89 1019.3
20260507090013 46 59 0.0 0.0 0.00 0.00 0.00 86 1019.3
20260507084513 48 40 0.0 0.0 0.00 0.00 0.00 89 1019.5
20260507083015 47 31 0.0 0.0 0.00 0.00 0.00 86 1019.4
20260507081509 47 31 0.0 0.0 0.00 0.00 0.00 86 1019.4
20260507080008 49 13 0.0 0.0 0.00 0.00 0.00 83 1019.4
20260507074509 49 19 0.0 2.0 0.00 0.00 0.00 83 1019.4
20260507073003 51 344 0.0 0.0 0.00 0.00 0.00 81 1019.3
20260507071601 52 334 0.0 2.0 0.00 0.00 0.00 77 1019.4
20260507070139 53 28 1.0 2.0 0.00 0.00 0.00 76 1019.3
20260507064556 54 69 0.0 2.0 0.00 0.00 0.00 74 1019.3
20260507063101 55 261 0.0 2.0 0.00 0.00 0.00 71 1019.3
20260507061555 57 23 1.0 2.0 0.00 0.00 0.00 68 1019.2
20260507060054 58 17 1.0 3.0 0.00 0.00 0.00 66 1019.1
20260507054602 57 5 1.0 3.0 0.00 0.00 0.00 68 1019.0
20260507053055 60 350 2.0 5.0 0.00 0.00 0.00 62 1019.1
20260507051553 58 46 2.0 4.0 0.00 0.00 0.00 65 1019.1
20260507050052 60 71 1.0 3.0 0.00 0.00 0.00 63 1019.1
20260507044551 62 9 0.0 0.0 0.00 0.00 0.00 60 1019.1
20260507043051 62 334 1.0 5.0 0.00 0.00 0.00 59 1018.9
20260507041550 64 52 0.0 3.0 0.00 0.00 0.00 56 1018.7
20260507040051 65 25 1.0 5.0 0.00 0.00 0.00 54 1018.6
20260507034550 65 49 2.0 8.0 0.00 0.00 0.00 55 1018.3
20260507033048 68 319 2.0 8.0 0.00 0.00 0.00 48 1018.2
20260507031548 69 41 0.0 3.0 0.00 0.00 0.00 51 1018.1
20260507030052 70 84 1.0 2.0 0.00 0.00 0.00 45 1017.9
20260507024547 72 12 3.0 8.0 0.00 0.00 0.00 45 1017.6
20260507023046 74 325 4.0 11.0 0.00 0.00 0.00 42 1017.5
20260507021555 75 347 6.0 11.0 0.00 0.00 0.00 44 1017.4
20260507020051 76 5 4.0 12.0 0.00 0.00 0.00 41 1017.3
20260507014558 77 360 7.0 11.0 0.00 0.00 0.00 41 1017.3
20260507013042 78 351 7.0 15.0 0.00 0.00 0.00 39 1017.3
20260507011542 78 346 8.0 13.0 0.00 0.00 0.00 40 1017.1
20260507010045 79 302 11.0 15.0 0.00 0.00 0.00 39 1017.0
20260507004543 80 315 8.0 15.0 0.00 0.00 0.00 40 1016.8
20260507003039 82 348 8.0 11.0 0.00 0.00 0.00 41 1016.5
20260507001538 82 266 3.0 12.0 0.00 0.00 0.00 39 1016.4
20260507000039 84 327 3.0 13.0 0.00 0.00 0.00 41 1016.3
20260506234535 83 225 4.0 9.0 0.00 0.00 0.00 38 1016.2
20260506233034 83 233 7.0 14.0 0.00 0.00 0.00 41 1016.2
20260506231534 83 223 4.0 6.0 0.00 0.00 0.00 41 1016.3
20260506230029 82 204 7.0 10.0 0.00 0.00 0.00 41 1016.4
20260506224528 83 211 4.0 9.0 0.00 0.00 0.00 39 1016.7
20260506223026 82 179 2.0 5.0 0.00 0.00 0.00 39 1016.9
20260506221525 82 263 5.0 8.0 0.00 0.00 0.00 39 1017.2
20260506220029 82 182 3.0 7.0 0.00 0.00 0.00 41 1017.4
20260506214521 81 349 3.0 6.0 0.00 0.00 0.00 42 1017.5
20260506213019 80 168 3.0 7.0 0.00 0.00 0.00 41 1017.8
20260506211517 79 184 2.0 6.0 0.00 0.00 0.00 44 1018.0
20260506210020 80 186 3.0 6.0 0.00 0.00 0.00 43 1018.2
20260506204518 78 167 1.0 5.0 0.00 0.00 0.00 41 1018.4
20260506203011 77 198 4.0 8.0 0.00 0.00 0.00 43 1018.6
20260506201509 76 150 2.0 6.0 0.00 0.00 0.00 46 1018.8
20260506200008 76 205 0.0 6.0 0.00 0.00 0.00 47 1019.0
20260506194506 76 222 4.0 8.0 0.00 0.00 0.00 47 1019.3
20260506193004 75 100 2.0 5.0 0.00 0.00 0.00 46 1019.5
20260506191559 74 188 1.0 5.0 0.00 0.00 0.00 49 1019.7
20260506190056 74 243 2.0 6.0 0.00 0.00 0.00 50 1019.7